Regional Weather Roundup
Issued by NWS

Home | Current Version | Previous Version | Text Only | Print | Product List | Glossary Off
Versions: 1 2 3 4 5 6 7 8 9 10 11 12 13 14 15 16 17 18 19 20 21 22 23 24 25 26 27 28 29 30 31 32 33 34 35 36 37 38 39 40 41 42 43 44 45 46 47 48 49 50

000
ASUS43 KFSD 250502
RWRSD

WEATHER ROUNDUP FOR SOUTH DAKOTA
NATIONAL WEATHER SERVICE SIOUX FALLS SD
1200 AM CDT WED MAY 25 2016

NOTE: "FAIR" INDICATES FEW OR NO CLOUDS BELOW 12,000 FEET WITH NO
SIGNIFICANT WEATHER AND/OR OBSTRUCTIONS TO VISIBILITY.


SDZ001>005-009-010-012>017-250600-
NORTHWEST AND NORTH CENTRAL SOUTH DAKOTA

CITY           SKY/WX    TMP DP  RH WIND       PRES   REMARKS
BUFFALO          N/A     59  44  57 NE3       29.78R
FAITH            N/A     57  48  72 SE15      29.84F
MOBRIDGE       LGT RAIN  63  52  67 W14       29.87R
$$

SDZ012>016-024>037-041>051-057-063-072>074-250600-
SOUTHWEST AND SOUTH CENTRAL SOUTH DAKOTA

CITY           SKY/WX    TMP DP  RH WIND       PRES   REMARKS
RAPID CTY ARPT CLOUDY    51  48  89 S6        29.85R
PIERRE         RAIN      58  55  90 NW18      29.85R
CUSTER         CLOUDY    45  42  89 CALM      29.90R
PHILIP         CLOUDY    56  55  97 NE21      29.81F
PINE RIDGE     CLOUDY    53  47  79 E14       29.82F
WINNER         FAIR      69  56  62 S9        29.77R
$$

SDZ004>011-016>023-039-040-250600-
NORTHEAST SOUTH DAKOTA

CITY           SKY/WX    TMP DP  RH WIND       PRES   REMARKS
ABERDEEN       CLOUDY    68  50  52 NE12      29.82S
WATERTOWN      CLOUDY    70  46  42 E6        29.84S
BROOKINGS      CLOUDY    66  55  67 SE7       29.85S
SISSETON         N/A     64  49  57 CALM      29.84R
$$

SDZ017-020-022-023-036>040-048>070-250600-
SOUTHEAST SOUTH DAKOTA

CITY           SKY/WX    TMP DP  RH WIND       PRES   REMARKS
SIOUX FALLS    PTCLDY    71  61  70 S10       29.86R
HURON          CLOUDY    68  53  58 SE9       29.79F
MITCHELL       CLOUDY    70  62  76 SE10      29.79F
YANKTON        CLOUDY    70  61  73 E6        29.82R
$$

ABBREVIATIONS USED IN REMARKS
   TC - TEMPERATURE IN CELSIUS
  WCI - WIND CHILL INDEX
   HX - HEAT INDEX
  VSB - VISIBILITY




USA.gov is the U.S. government's official web portal to all federal, state and local government web resources and services.